GFSWCAN_925_thetae_132.txt.gz
Theta_e
310 311 313 312 312 310 309 310 312 314 312 312 312 312 313 313 313 311 310 314 319 326 327 324 320 318 317 314 313 312 315 315 318 318 320 320 320 319 320 321 320 318 317 318 320 324 332 327 329 331 327 324 335 335
311 311 313 312 311 309 309 312 313 313 313 311 312 312 312 312 312 311 309 318 315 321 325 328 320 318 317 317 311 310 312 315 318 317 318 320 321 317 314 318 318 319 315 317 319 322 323 325 325 323 321 323 323 335
309 311 312 311 309 309 310 313 313 312 313 312 312 312 313 312 312 312 310 312 321 325 325 320 318 319 318 318 317 310 314 320 320 315 315 316 318 315 317 317 319 321 319 319 320 325 326 325 322 320 321 323 324 335
308 311 311 310 309 309 310 311 311 310 312 312 312 312 312 312 312 312 310 315 313 321 328 319 320 319 318 318 318 318 320 319 315 311 312 312 315 314 316 317 316 318 319 317 323 324 323 322 321 322 321 324 333 333
308 310 309 308 309 309 311 312 308 309 312 311 311 311 312 312 312 311 309 311 313 321 327 322 319 320 318 318 318 318 318 313 311 311 312 313 315 318 315 311 312 316 317 317 317 319 318 319 319 320 321 325 324 331
307 310 308 308 308 309 311 309 306 307 312 311 311 311 311 312 311 308 318 321 318 319 325 324 318 317 318 318 318 317 316 314 313 315 316 319 319 317 318 312 316 320 317 317 323 321 321 323 322 323 324 324 326 330
307 308 308 308 308 309 310 307 307 307 311 312 311 311 312 312 309 313 321 321 319 318 325 320 318 317 319 318 315 314 314 311 313 313 315 318 319 315 313 314 313 320 324 324 322 320 322 321 319 320 322 321 331 330
306 307 308 308 308 309 309 306 308 307 309 313 313 312 310 308 308 311 317 321 319 322 321 317 322 320 319 317 318 315 316 313 312 311 312 319 318 316 319 317 318 319 324 323 322 318 318 320 317 317 321 321 329 330
306 307 307 307 308 309 309 306 308 308 311 313 310 307 309 310 315 319 321 317 319 324 323 318 323 325 317 318 317 317 315 319 315 314 314 316 316 316 318 318 319 319 322 323 320 319 319 321 320 322 323 320 321 327
305 307 307 307 308 309 309 307 309 309 306 306 308 314 316 318 317 318 317 315 317 318 324 327 317 322 318 317 319 321 316 316 321 319 317 316 316 315 318 316 314 318 318 318 319 319 319 323 321 320 319 319 324 326
306 306 307 307 308 309 309 307 309 310 311 315 316 319 319 317 317 316 317 316 316 319 316 322 321 323 319 321 320 319 321 319 322 319 319 319 320 317 318 316 315 315 317 316 317 318 316 317 317 318 318 321 322 323
306 306 306 308 308 309 308 308 309 311 313 313 313 316 320 319 318 319 319 315 318 318 319 318 318 319 319 320 321 320 322 319 323 320 322 321 317 321 320 320 318 315 315 317 319 318 320 319 318 316 318 318 318 318
305 305 306 308 308 308 309 308 309 309 312 317 318 319 318 316 316 320 320 320 320 321 319 314 316 316 318 319 322 320 323 323 320 323 322 319 321 320 320 320 319 316 316 318 318 317 317 318 317 318 317 316 316 316
305 305 306 308 309 308 308 308 309 310 314 317 319 315 320 319 318 317 317 317 319 321 321 316 314 321 320 320 319 326 322 321 325 323 324 321 320 318 318 319 316 315 315 316 315 316 316 315 315 316 316 316 315 315
306 305 305 306 308 309 309 308 309 310 314 317 318 318 320 317 316 317 318 319 320 319 320 321 320 319 320 321 320 323 326 326 325 324 320 321 319 319 319 317 314 314 314 314 314 315 315 315 315 315 316 316 316 315
305 306 307 309 311 310 308 310 309 312 314 317 318 320 318 318 320 319 320 322 320 320 321 321 324 322 323 321 324 325 325 326 322 319 323 323 321 319 318 317 316 316 315 315 315 315 315 314 318 317 317 316 314 313
305 307 311 310 310 308 309 311 312 312 314 316 318 314 315 316 319 320 317 319 318 322 325 325 326 324 322 322 324 321 322 319 325 325 324 322 322 321 319 319 319 320 319 320 317 317 316 316 315 314 313 313 314 314
307 310 311 310 310 308 309 310 313 314 315 315 317 314 315 316 317 316 319 318 322 324 324 325 325 325 325 326 323 320 326 325 324 324 325 323 323 322 321 321 323 324 323 321 321 319 318 316 315 314 313 313 314 315
308 308 308 309 310 311 311 311 311 314 314 313 312 313 313 315 316 315 319 319 320 320 321 324 327 326 324 328 326 325 324 325 327 327 327 327 326 325 325 325 324 322 320 318 317 316 316 316 315 314 314 314 314 313
305 307 309 309 309 310 313 313 311 313 313 313 312 313 314 315 316 316 317 318 319 321 323 325 327 324 325 322 324 323 322 320 324 325 326 324 325 325 324 321 318 317 316 316 316 315 315 314 314 314 313 313 311 311
307 306 307 308 310 309 311 314 313 314 317 318 316 316 317 315 316 316 316 317 319 320 322 320 320 320 322 324 323 322 319 319 321 321 323 325 324 324 320 317 315 313 312 312 311 312 313 312 313 313 312 312 311 313
309 310 309 308 311 312 312 312 316 317 318 318 321 320 320 319 318 318 316 319 319 319 319 318 317 316 323 323 322 322 323 321 322 322 324 324 322 319 317 316 314 313 312 312 312 311 312 312 312 312 312 311 312 312
309 309 310 310 312 311 310 313 316 318 320 322 322 321 321 321 321 320 323 321 320 316 317 320 322 320 324 322 320 320 321 323 323 323 324 322 321 320 317 317 316 315 313 314 314 313 313 312 312 312 309 310 310 310
309 311 314 315 313 313 315 319 318 318 321 320 321 323 323 323 323 324 322 321 321 321 321 321 322 322 321 320 320 318 319 320 321 323 324 322 320 319 318 317 317 316 316 314 314 314 314 313 311 308 308 309 307 307
312 311 313 310 317 319 320 319 320 320 323 321 324 323 324 322 324 326 325 324 322 321 320 319 322 322 324 322 321 322 326 323 322 321 321 321 321 319 318 317 317 317 315 314 314 314 311 309 309 309 309 308 307 306
311 312 312 318 318 319 320 323 323 322 323 324 324 322 322 323 325 326 325 322 323 323 321 319 322 323 323 322 321 321 324 325 322 320 319 319 319 318 315 313 312 316 315 315 315 312 310 309 309 308 308 308 308 308
312 315 316 314 317 318 320 320 321 322 325 326 324 325 326 327 329 326 322 319 321 322 321 324 324 323 323 323 324 325 325 324 323 321 320 321 322 321 318 317 315 316 316 315 315 312 311 309 309 309 308 308 308 308
315 316 319 318 318 319 321 320 322 325 326 324 324 326 327 325 324 323 322 322 321 321 319 321 323 324 322 322 325 324 322 322 322 321 320 320 319 319 318 317 316 316 315 315 313 312 312 311 310 311 310 310 309 309
315 316 318 317 318 320 321 323 325 323 324 324 325 326 325 321 321 322 323 323 323 322 319 321 323 321 320 319 321 323 321 321 317 316 316 315 314 318 317 317 316 315 315 315 315 314 313 312 312 312 312 312 311 310
314 313 317 319 320 323 323 323 323 323 322 323 323 323 323 321 323 323 324 320 320 319 322 322 321 320 317 317 317 317 317 318 317 317 316 318 318 317 316 316 316 316 315 315 315 314 313 313 313 312 312 312 312 311
315 317 318 317 321 323 322 320 321 322 323 323 323 323 322 321 322 321 320 319 320 320 319 319 319 319 318 317 317 317 317 316 314 316 317 317 316 317 317 316 316 316 315 315 315 313 313 313 312 312 310 311 310 309
316 317 319 321 323 323 321 323 324 323 323 323 323 321 321 322 321 317 318 319 319 317 319 319 319 317 318 319 318 316 316 316 314 314 314 314 312 313 313 315 315 313 315 314 314 313 313 312 311 310 309 307 308 308
315 317 319 320 321 323 321 322 324 324 323 322 323 321 322 321 320 318 319 317 316 316 316 314 313 313 313 314 315 316 315 313 312 312 311 311 311 311 310 310 310 310 310 310 311 312 312 311 310 309 308 308 308 309

GFSWCAN_925_thetae_138.txt.gz
Theta_e
315 313 313 311 310 311 310 309 308 310 312 309 310 311 311 310 311 311 312 312 311 315 317 324 324 316 314 311 314 311 314 314 312 316 317 317 315 316 318 317 317 314 316 318 317 324 323 325 326 327 320 325 327 331
313 312 311 310 309 309 309 308 308 310 311 308 309 311 311 311 310 311 311 311 311 310 315 318 321 324 324 312 307 307 313 311 313 314 314 314 317 312 311 318 313 316 312 316 316 316 314 321 324 322 320 326 330 331
312 312 310 309 309 308 308 308 309 311 311 307 307 311 311 311 310 311 312 311 311 314 319 321 323 316 314 313 315 314 313 313 312 309 311 312 316 311 316 315 316 318 313 319 319 319 324 322 322 320 321 322 322 329
311 309 310 309 309 308 308 308 309 310 308 307 307 311 310 310 310 310 311 311 311 311 323 324 319 317 315 317 317 317 315 312 308 305 306 307 311 309 311 313 314 314 313 317 317 317 321 321 320 321 320 324 327 331
309 309 309 308 308 308 308 308 309 309 307 307 307 311 311 310 310 310 310 312 312 313 323 322 320 316 315 316 318 319 314 309 307 310 309 311 307 313 308 308 310 314 314 316 315 314 319 315 316 320 321 330 331 330
308 307 306 307 308 308 307 308 309 310 307 308 307 309 312 311 310 310 306 312 313 309 318 324 316 314 315 315 314 312 311 309 308 310 310 308 312 312 313 312 309 309 310 310 314 311 314 319 317 319 320 321 329 328
307 306 305 305 307 307 307 308 309 309 307 308 308 309 312 311 310 308 311 311 311 310 318 324 315 312 314 314 311 310 309 308 309 309 311 315 314 309 311 315 313 312 314 312 315 317 321 320 320 319 321 322 323 327
306 305 305 305 306 307 307 308 309 309 308 308 308 311 311 311 310 311 311 311 310 314 317 320 317 315 315 314 314 308 311 308 307 308 310 315 314 312 317 313 311 311 318 320 318 315 314 315 315 319 320 328 328 326
304 304 304 305 306 307 307 308 310 309 308 309 307 307 307 307 305 312 316 314 313 316 322 316 321 318 313 313 313 313 310 314 309 310 309 315 313 316 316 314 315 314 319 320 318 317 318 319 317 316 319 324 327 326
304 304 304 305 306 307 307 308 310 308 309 310 307 309 309 312 315 316 315 314 313 317 320 325 316 321 315 313 316 317 312 315 319 315 311 314 313 312 312 311 313 314 316 317 319 320 318 318 317 316 317 318 322 325
305 304 304 305 306 307 308 309 309 309 314 314 313 315 317 318 316 311 315 313 312 316 316 322 317 318 315 320 318 315 317 315 320 317 319 317 316 315 312 311 311 312 316 316 317 317 316 315 318 316 317 318 320 326
304 304 304 306 306 307 308 308 309 310 310 309 310 313 316 315 314 316 317 313 315 315 314 321 321 317 317 317 320 317 320 318 323 315 318 319 316 313 313 312 312 310 314 316 317 316 316 315 317 317 317 320 322 325
304 305 305 305 305 307 308 308 308 308 309 315 314 317 315 314 316 319 319 318 315 315 314 315 320 317 317 317 319 319 321 321 316 320 320 319 315 313 315 314 313 311 314 315 316 317 317 316 316 317 319 321 323 324
306 306 305 305 306 307 308 308 308 309 310 314 317 316 318 318 316 316 315 315 314 315 316 312 313 317 314 320 320 323 320 320 323 322 323 318 316 315 315 314 313 313 312 313 314 315 316 316 316 318 319 320 321 320
306 306 306 306 306 307 308 309 309 309 312 315 315 317 320 316 314 314 314 314 314 317 316 314 316 317 317 320 319 320 323 324 323 322 319 315 314 314 315 314 313 312 311 312 313 314 315 315 316 315 317 319 320 319
305 305 308 307 310 310 310 309 309 310 313 315 316 317 316 315 317 314 315 316 315 317 319 320 321 320 321 318 322 323 324 325 321 319 316 313 314 313 314 314 312 311 311 311 313 314 314 314 315 316 316 316 317 317
305 306 309 310 310 308 309 311 312 312 313 314 313 312 311 313 315 315 315 316 313 318 321 322 323 325 320 319 321 320 323 320 318 316 315 316 316 313 312 312 311 311 311 311 312 313 313 314 314 313 311 312 313 314
306 308 309 309 310 308 309 310 312 313 314 311 311 309 311 310 315 317 317 316 315 317 320 321 322 324 325 326 320 320 319 318 315 317 319 318 314 312 313 312 312 312 311 312 312 312 312 312 312 312 312 311 312 312
307 307 308 309 309 310 310 311 310 314 314 312 309 307 309 309 309 310 313 316 316 316 318 319 322 322 322 321 324 323 324 321 321 319 319 316 315 315 315 315 315 314 314 313 311 311 311 313 313 313 312 311 311 312
305 307 308 309 309 310 312 312 310 312 313 312 308 307 308 308 307 309 311 312 317 318 318 320 319 320 320 322 322 322 321 320 320 323 321 319 318 318 318 318 317 317 315 314 313 312 311 312 313 313 312 312 313 313
305 306 308 308 309 309 310 312 313 312 313 315 315 314 313 308 310 311 312 313 316 318 319 316 318 318 319 320 320 320 320 319 320 322 322 322 320 320 320 320 319 317 315 313 312 311 312 312 313 313 312 313 314 315
307 307 307 307 308 311 311 309 312 313 314 316 318 319 320 315 313 312 311 315 315 315 314 315 316 316 318 320 318 319 319 319 320 319 322 323 322 319 317 315 315 314 313 313 313 312 312 313 313 313 312 313 313 312
308 308 309 309 311 310 311 310 314 314 317 319 321 322 321 320 317 313 316 316 317 314 314 314 314 315 317 319 320 319 319 319 318 318 318 321 321 320 317 315 315 313 311 312 313 313 312 313 313 313 312 312 310 309
307 309 312 313 311 312 312 315 314 314 316 317 319 322 322 321 320 320 321 320 318 317 316 314 315 317 318 318 319 319 320 319 319 318 318 318 317 316 317 316 315 315 316 314 314 313 311 311 311 311 311 310 310 310
310 309 311 309 314 315 317 317 317 318 320 320 320 320 319 317 320 320 321 321 320 318 317 317 319 319 320 319 317 318 318 319 317 317 319 320 318 317 316 315 314 315 315 313 311 311 311 311 311 310 310 310 308 308
311 312 311 315 316 317 320 322 322 322 321 322 321 319 317 321 323 324 323 322 318 318 318 317 319 319 319 317 317 317 319 319 319 318 319 321 320 318 316 316 314 313 314 314 313 312 312 311 311 310 310 310 309 308
312 313 311 308 312 317 318 317 318 319 322 324 325 324 323 325 323 321 319 317 318 318 319 319 318 319 318 318 320 320 322 323 321 320 321 321 321 320 317 316 315 316 315 314 314 313 312 312 311 310 310 310 308 308
311 313 316 316 316 316 317 318 319 323 323 323 324 325 326 325 323 320 318 319 319 320 321 322 322 322 321 322 322 321 320 319 319 319 318 318 318 317 318 318 318 316 316 315 313 312 312 312 312 312 309 308 308 307
311 311 313 315 315 316 318 322 323 322 321 323 325 326 324 321 319 320 319 320 318 319 318 317 316 321 322 321 321 319 319 320 316 315 315 314 314 317 318 317 317 316 315 315 314 314 315 314 314 312 312 308 308 309
310 311 314 314 317 322 321 320 321 321 321 321 321 321 320 318 319 318 319 317 319 319 319 316 318 319 317 317 317 318 319 317 316 316 314 315 316 317 318 317 316 316 315 314 315 314 312 311 311 309 308 308 308 309
308 311 313 315 321 321 321 320 320 320 321 322 320 321 320 318 315 316 318 320 320 319 317 315 315 315 315 314 314 313 314 317 318 317 317 316 317 316 317 316 315 316 316 315 314 313 313 313 312 310 310 310 310 311
309 313 316 321 322 322 321 321 321 320 320 320 319 315 316 315 316 314 316 319 318 316 316 316 316 316 316 316 316 315 315 315 314 314 315 316 316 316 316 316 315 315 315 314 314 314 314 313 312 311 311 311 311 311
310 313 317 320 321 323 322 323 322 322 319 319 319 317 316 318 319 315 316 316 316 317 317 317 317 317 317 316 315 315 314 313 314 315 315 315 315 315 315 315 315 315 315 314 314 313 313 312 312 312 311 310 310 309

GFSWCAN_925_thetae_141.txt.gz
Theta_e
316 315 314 313 310 310 310 310 309 309 310 311 308 311 311 311 311 311 312 311 312 318 321 324 327 321 318 318 323 318 320 321 322 325 325 324 324 324 325 323 323 323 325 326 327 328 325 328 329 329 330 331 337 340
315 314 312 311 311 309 309 309 309 308 310 311 307 308 311 310 310 310 311 309 310 312 319 316 318 320 323 323 316 314 321 322 322 324 323 323 324 320 324 327 320 324 321 324 325 325 323 327 330 327 328 334 335 338
313 312 311 310 310 309 308 308 309 309 310 309 307 308 310 311 310 310 311 311 310 314 322 323 324 316 315 321 319 322 318 318 319 317 323 322 328 321 325 324 324 323 320 326 328 325 327 328 326 326 327 328 329 337
313 312 309 309 308 308 308 308 308 309 309 308 307 307 310 311 310 310 311 311 311 313 325 326 322 319 314 313 312 314 318 314 314 315 319 321 322 317 322 322 324 322 323 327 328 325 324 327 327 327 325 326 330 335
311 310 308 308 308 308 308 308 308 309 310 308 308 308 310 311 311 310 310 310 311 313 324 327 323 316 314 316 318 317 317 317 318 319 320 321 316 320 316 317 321 320 326 324 323 327 327 325 327 326 326 330 334 336
309 309 307 307 306 307 308 307 308 309 309 307 308 308 309 311 311 310 312 310 311 311 317 329 323 317 314 316 317 317 317 316 317 320 319 315 317 322 322 324 323 320 321 323 324 319 324 324 322 325 325 333 335 335
308 307 306 305 305 306 307 307 308 309 309 307 308 308 310 312 311 311 313 310 311 310 319 328 326 317 315 316 316 316 314 315 319 318 321 324 322 321 323 327 325 319 321 320 320 321 325 325 324 324 324 325 332 332
307 306 305 305 305 306 307 307 308 309 309 308 308 308 311 311 311 311 312 311 309 311 318 328 323 319 316 320 321 315 318 317 316 317 318 322 320 320 328 325 324 319 320 322 320 321 322 325 323 324 325 328 330 333
305 305 305 304 304 306 307 307 308 309 308 308 309 308 308 308 309 310 313 311 310 314 325 324 324 323 317 319 320 319 318 320 316 320 319 322 324 333 327 327 323 320 324 326 324 321 322 323 325 325 325 330 331 332
304 304 304 304 304 306 307 307 308 309 308 311 307 308 311 309 311 314 313 313 314 316 320 327 321 324 320 321 322 323 319 324 327 324 316 322 323 323 325 324 324 323 323 326 324 325 324 324 323 324 325 329 332 331
304 304 304 304 305 306 307 307 309 308 312 312 314 316 315 316 316 315 317 320 320 321 322 326 323 325 319 323 325 322 326 323 326 325 324 325 326 324 322 322 322 322 322 324 325 324 324 324 324 322 324 323 327 330
305 304 304 304 305 306 307 308 309 309 309 309 310 312 315 318 317 318 320 317 317 320 318 326 327 324 322 322 327 323 326 323 327 320 325 329 326 325 321 321 320 321 322 323 323 324 322 322 322 322 322 323 324 328
305 304 304 305 305 306 307 308 308 308 308 313 313 318 319 318 321 321 320 321 318 318 318 320 325 326 322 325 325 328 328 327 321 325 331 327 328 324 322 321 319 319 320 322 323 322 322 322 321 323 323 324 324 327
305 306 306 305 305 306 307 308 308 308 309 317 318 316 318 320 319 321 319 320 318 318 320 318 321 323 322 326 327 326 326 323 327 329 328 327 332 330 324 322 320 319 320 322 324 322 322 322 321 322 323 324 325 327
305 306 306 306 306 306 307 307 309 308 313 317 318 318 320 318 318 318 317 317 318 318 321 317 319 322 322 326 325 325 325 327 327 329 327 326 332 325 324 322 321 321 320 321 320 320 321 321 321 321 321 323 325 326
305 305 307 307 309 310 310 309 309 309 313 316 317 318 318 319 319 318 318 319 319 321 322 322 323 324 324 323 326 326 324 325 325 325 325 325 325 324 325 324 322 320 319 319 319 319 320 320 321 321 320 322 323 323
304 307 309 310 309 308 309 310 311 313 314 315 316 315 316 316 318 318 317 319 318 322 327 325 325 325 324 324 324 324 325 325 324 323 322 325 327 326 323 322 320 319 319 318 319 319 320 319 319 319 321 319 320 320
306 308 308 309 309 308 309 310 313 314 314 314 315 314 315 316 317 316 319 318 320 323 324 325 326 326 325 326 325 324 326 325 325 325 325 325 325 324 320 323 320 319 319 318 318 318 317 317 319 321 321 318 317 316
307 307 308 309 309 310 311 311 311 314 315 314 313 312 313 314 314 315 316 317 318 319 322 325 325 325 325 327 326 326 326 326 326 326 325 324 323 321 319 320 319 318 318 317 316 316 317 318 319 319 317 316 316 316
305 307 308 309 309 311 313 313 311 313 314 313 312 312 313 314 313 313 314 314 318 319 322 324 325 325 327 328 328 328 326 325 326 327 327 328 322 319 319 319 319 319 317 316 315 314 315 315 315 316 315 315 315 315
305 306 308 308 309 309 311 313 313 312 314 314 315 313 315 312 314 314 314 314 317 318 320 321 322 324 324 324 324 324 325 325 326 325 323 326 323 322 322 321 320 320 321 319 318 316 314 315 315 315 314 315 315 314
306 306 307 307 309 311 312 310 313 313 314 316 317 318 319 318 318 317 315 317 317 316 317 317 320 320 322 323 324 322 321 322 320 320 321 322 325 324 324 322 322 322 321 320 319 320 318 316 314 314 315 315 314 314
308 307 309 309 311 310 311 311 314 315 317 319 321 322 323 322 319 316 318 318 318 318 318 319 320 319 321 320 321 321 321 320 322 322 321 321 322 322 322 320 321 321 320 319 318 317 316 314 313 314 314 313 314 312
307 309 311 313 311 312 313 315 314 316 317 320 321 323 324 324 319 321 322 322 320 319 318 320 320 320 320 320 323 322 321 320 320 321 321 322 324 323 322 321 319 319 320 317 316 315 313 312 312 313 313 312 311 310
309 309 310 309 313 314 316 318 318 320 321 321 322 323 324 322 326 326 326 323 322 322 323 322 319 319 321 322 322 321 319 321 322 323 323 321 322 320 319 317 316 316 316 315 314 313 313 312 313 313 312 311 311 311
309 311 311 315 317 318 319 321 322 322 322 323 323 323 322 324 324 324 325 325 324 322 322 323 324 323 323 323 324 322 320 318 320 322 321 321 321 322 321 319 317 314 314 314 313 313 312 312 312 311 311 311 310 310
311 314 314 311 313 316 318 319 319 321 321 324 324 326 324 321 322 323 322 320 320 321 320 320 321 322 324 323 321 321 320 319 322 323 321 321 322 321 320 319 318 317 316 313 313 313 312 312 312 312 312 311 310 309
313 313 316 317 316 316 318 319 321 323 323 320 323 324 326 324 325 325 323 319 320 320 321 321 321 320 323 322 321 320 319 319 319 318 317 316 317 317 318 318 318 318 314 314 314 314 313 313 313 312 312 311 311 310
313 313 314 317 316 317 319 321 323 323 322 323 324 324 324 325 322 323 321 318 318 320 320 321 321 321 321 320 319 318 319 320 321 322 322 321 320 317 316 316 315 315 315 314 313 313 312 312 312 312 313 312 311 310
313 312 315 316 317 321 322 320 322 320 320 322 322 323 324 324 319 316 318 319 320 320 320 320 320 320 320 319 319 319 317 317 318 319 320 321 320 317 317 316 316 315 315 315 314 313 313 313 313 311 311 311 311 310
311 312 315 316 321 320 320 321 320 321 322 322 322 323 324 322 317 317 319 319 318 318 319 320 319 320 320 320 320 320 320 317 317 317 317 318 318 318 317 317 316 315 315 315 315 315 314 313 313 313 312 312 312 311
312 314 318 319 321 321 321 321 321 322 322 322 322 321 321 321 322 320 317 319 319 319 317 318 318 318 316 316 315 315 315 316 314 315 316 317 317 317 316 315 315 315 315 315 315 315 315 315 314 313 313 313 313 313
313 315 319 320 321 323 323 324 324 323 322 322 322 322 322 322 322 319 315 315 318 318 319 318 317 316 316 315 314 312 313 314 315 315 315 315 315 315 315 315 315 315 316 315 315 315 315 315 315 314 314 314 313 313

GFSWCAN_925_thetae_144.txt.gz
Theta_e
318 317 316 315 313 312 311 310 309 309 309 311 312 308 310 311 311 312 316 314 317 322 323 325 328 328 323 323 324 325 324 324 323 321 321 323 322 324 325 327 325 326 326 324 326 326 327 331 330 336 335 337 343 344
316 315 314 313 312 311 310 310 309 309 309 310 311 308 309 311 311 311 315 313 314 317 321 320 320 323 324 325 325 324 327 326 323 322 323 322 323 326 325 326 326 326 325 327 327 331 332 332 334 333 335 336 341 341
314 313 312 311 310 310 309 310 310 309 309 310 309 308 308 311 311 310 313 314 315 318 320 320 322 323 322 324 324 324 324 326 326 327 324 324 324 324 325 324 325 327 325 323 325 327 330 331 331 332 334 337 338 340
313 313 312 310 309 309 309 309 308 308 309 310 310 308 308 310 311 310 312 313 315 319 325 323 325 325 319 316 322 321 322 323 325 325 323 323 322 325 322 326 326 327 328 326 326 327 330 330 330 331 332 331 335 338
312 311 310 309 308 308 308 308 308 308 309 310 309 308 308 308 311 311 311 312 313 318 326 325 325 324 318 320 319 319 322 324 324 324 323 323 322 323 324 325 323 327 325 326 322 326 325 325 327 328 330 331 334 338
309 310 309 309 307 306 307 308 308 308 308 309 308 308 308 309 311 313 314 314 312 313 322 328 327 323 319 322 323 323 324 324 324 324 324 323 324 324 322 321 322 323 325 326 325 326 326 326 326 326 326 327 332 337
308 308 308 307 306 306 306 307 307 308 308 309 308 308 308 310 312 314 318 312 312 314 321 326 329 322 319 321 321 322 322 323 324 324 323 324 325 323 322 323 321 323 324 326 326 327 328 326 325 327 326 331 335 335
306 307 307 306 305 305 305 307 307 308 308 309 308 308 309 312 311 312 315 311 312 316 319 331 330 323 319 322 323 322 323 322 323 323 322 323 325 324 323 321 323 322 325 326 325 325 326 326 326 327 326 330 336 335
305 306 306 305 304 304 305 307 307 308 309 308 308 309 309 311 314 314 313 311 312 317 327 329 329 326 321 324 324 323 323 324 322 322 322 323 323 335 324 325 325 326 326 326 325 325 325 326 326 327 328 328 330 334
305 305 304 304 304 304 305 307 307 308 309 309 309 309 312 311 311 312 314 316 317 320 320 327 326 327 322 324 325 325 324 325 326 324 322 322 323 324 323 325 327 326 326 326 328 327 326 325 325 326 326 327 328 330
304 304 304 304 304 304 306 307 308 309 311 313 315 318 317 312 317 320 322 323 322 323 324 325 328 327 323 326 326 326 326 326 327 327 325 326 326 325 327 325 324 326 327 327 327 326 326 324 324 324 326 327 331 332
305 305 304 304 304 305 306 307 308 310 313 312 313 312 315 318 320 320 322 321 323 323 322 326 326 327 325 325 327 327 328 328 328 325 326 327 326 327 329 326 326 326 326 325 325 325 325 324 323 323 325 326 329 330
305 304 304 304 305 306 306 307 308 309 309 312 315 319 322 320 323 320 318 321 322 321 321 324 328 329 327 327 328 329 327 328 326 328 329 328 325 330 330 328 327 326 325 324 325 324 324 324 323 324 325 326 326 329
305 305 305 306 305 305 306 307 308 309 311 319 320 317 319 320 320 320 320 319 321 321 322 321 324 330 327 328 328 329 328 327 329 330 328 326 328 329 331 329 327 326 325 326 326 325 325 325 325 325 326 326 327 330
305 305 306 306 306 306 306 306 307 310 314 320 320 321 320 319 320 320 320 321 321 321 322 323 321 323 326 328 326 328 328 330 329 326 325 325 328 328 332 329 327 326 325 325 325 326 326 325 325 325 327 328 328 329
305 305 307 306 307 309 309 308 310 312 315 318 319 320 320 321 321 321 321 321 322 323 324 325 324 322 322 323 326 327 326 326 325 326 324 325 332 333 332 330 328 326 325 324 324 324 325 325 325 326 326 328 329 330
305 308 309 309 309 309 309 312 313 314 316 317 318 317 319 319 320 321 320 321 321 323 325 321 322 322 322 322 323 322 324 324 326 328 328 330 332 333 330 330 328 325 325 324 324 324 324 324 324 326 327 327 328 329
308 308 308 309 310 309 312 313 314 316 317 316 317 316 316 317 317 318 319 319 322 324 324 323 325 324 322 321 321 321 325 327 327 327 327 329 332 331 328 329 326 325 325 324 324 324 324 325 326 326 327 326 326 325
307 308 309 309 310 312 313 313 313 316 316 315 316 315 315 315 315 316 317 319 318 319 321 325 324 323 323 322 322 324 325 325 326 325 326 330 330 329 328 326 326 325 325 324 324 323 322 323 322 324 325 324 322 321
306 307 308 309 309 312 314 315 313 315 315 315 315 315 315 315 315 316 316 316 318 321 321 323 323 325 326 324 324 323 323 325 326 325 324 326 328 327 326 325 325 324 324 323 322 321 322 322 321 322 322 321 320 320
305 306 308 309 310 311 313 314 315 313 316 315 315 315 316 313 315 318 318 316 317 320 320 319 320 322 325 324 324 324 324 325 327 327 326 329 328 326 324 323 323 322 322 321 321 320 320 321 320 320 320 319 319 319
308 307 308 308 309 311 313 312 315 315 314 316 316 317 318 319 320 320 319 318 318 318 318 318 319 320 321 323 323 323 322 323 325 324 323 324 327 326 325 323 322 323 323 322 322 321 321 320 319 319 319 319 318 318
307 308 310 310 311 312 314 314 315 315 316 319 320 320 321 323 322 319 321 321 320 320 319 318 318 318 320 319 318 320 323 321 325 323 326 326 326 327 326 326 326 326 326 325 324 323 322 320 318 320 319 318 317 315
307 309 311 312 311 313 313 315 314 316 319 320 323 324 325 326 320 321 323 324 321 321 320 323 321 321 321 322 322 321 320 322 322 322 324 324 326 327 327 327 326 324 324 323 322 321 319 319 317 318 317 317 317 316
310 311 311 310 313 314 316 318 320 320 322 322 323 324 326 326 327 327 327 326 324 324 325 324 325 325 324 322 321 321 323 321 320 320 322 323 323 325 324 324 322 322 319 320 319 319 318 317 318 318 317 316 316 315
310 311 311 314 316 317 319 321 322 322 322 323 324 325 325 324 324 326 325 324 323 324 325 327 327 324 323 322 325 324 322 321 322 323 322 323 323 324 324 323 323 320 318 317 317 317 317 316 316 316 316 315 315 314
312 313 315 313 314 316 318 318 320 322 323 325 323 325 322 322 324 325 323 322 322 323 323 323 324 325 328 325 325 324 323 323 324 324 324 324 324 324 324 324 322 320 316 317 316 316 315 315 314 313 312 312 312 312
313 314 317 318 318 317 318 320 321 323 322 319 320 324 325 324 325 326 324 323 323 321 323 322 322 325 325 323 324 324 324 324 323 322 322 322 322 322 323 323 321 318 319 317 316 314 313 312 312 312 312 312 311 311
314 315 316 318 317 317 320 322 322 323 322 322 322 324 325 325 325 324 323 321 322 323 324 323 322 321 322 322 321 321 321 321 322 323 323 323 322 321 321 321 319 318 316 315 314 313 313 314 315 315 314 314 313 312
315 313 315 317 318 320 322 321 322 322 320 322 323 325 325 323 322 322 322 322 322 323 322 322 321 320 320 319 318 318 319 318 318 318 318 318 318 319 318 317 316 316 315 314 314 314 313 314 314 315 315 316 316 314
313 313 316 318 319 320 319 318 320 321 322 324 324 324 323 322 322 322 321 319 319 320 320 320 320 319 318 317 317 318 319 318 318 316 315 315 315 315 315 314 314 314 315 315 316 316 316 316 316 315 315 315 314 314
314 317 318 316 318 320 320 322 323 323 323 324 323 322 321 320 321 320 321 319 317 318 317 318 318 318 317 316 316 317 317 318 319 319 317 316 316 316 316 315 315 315 316 316 316 316 316 315 315 314 314 314 314 314
316 316 316 318 321 322 323 324 324 324 323 323 323 322 321 320 321 321 319 320 319 318 317 317 317 317 317 316 315 316 316 316 316 317 317 317 316 316 316 316 316 316 316 314 314 315 316 316 315 314 314 314 314 314

GFSWCAN_925_thetae_147.txt.gz
Theta_e
319 318 318 318 317 315 314 312 311 310 309 309 310 310 308 311 311 313 318 319 320 324 324 325 328 333 331 327 327 325 326 326 326 325 322 324 323 325 323 326 329 331 333 328 327 328 331 330 330 337 338 339 340 341
317 316 316 316 315 313 312 311 310 309 309 309 310 309 308 310 311 311 318 319 318 320 322 320 322 325 327 330 330 327 327 327 326 325 323 323 324 324 324 326 325 325 327 329 328 333 333 332 337 334 334 335 339 341
316 315 315 314 312 312 311 310 310 310 310 310 310 309 308 309 311 311 315 316 318 322 322 321 321 321 322 323 325 331 326 327 327 327 326 325 324 324 326 325 327 325 326 324 325 325 329 331 333 332 332 334 335 337
314 314 313 312 311 310 309 309 309 309 308 309 310 309 308 308 310 311 314 315 317 321 324 323 319 323 326 324 323 326 326 327 327 325 325 326 324 324 322 326 328 329 329 324 326 329 329 329 329 330 330 330 330 335
313 313 312 311 310 309 309 309 308 308 308 309 309 309 308 308 308 311 314 315 314 320 328 326 326 325 326 321 320 325 324 327 327 326 325 326 325 325 324 324 323 325 327 326 326 329 329 326 327 327 328 327 328 332
311 311 310 310 309 309 307 307 308 308 308 308 309 309 308 308 309 312 316 316 314 315 323 325 324 327 323 322 324 323 325 326 326 326 326 327 328 325 324 325 323 322 325 326 327 326 328 326 325 326 327 326 329 331
309 309 309 309 308 307 306 306 307 307 308 308 309 308 308 308 309 315 318 315 314 316 322 322 327 328 323 324 326 327 325 326 326 326 326 327 328 324 325 325 325 324 324 325 327 327 327 326 325 325 326 325 328 329
307 307 307 307 307 306 305 305 306 307 308 308 309 308 308 310 311 311 314 312 314 318 321 327 329 327 324 324 325 325 326 326 326 326 326 326 329 327 326 324 324 324 323 325 328 326 325 327 325 326 324 327 329 331
306 305 306 307 306 305 305 305 307 307 308 309 308 309 311 311 314 316 315 314 314 319 325 324 328 328 325 325 324 326 326 328 326 327 327 326 327 334 327 328 325 325 325 326 327 326 326 326 327 327 326 327 331 331
304 305 305 305 305 304 305 306 307 307 308 309 310 312 314 313 313 314 314 319 319 320 323 328 325 327 325 326 326 326 326 327 329 327 326 326 326 325 326 329 326 326 326 326 326 327 326 326 327 327 326 326 327 331
304 304 305 304 305 305 305 306 307 308 311 314 315 318 315 311 316 321 325 323 322 323 322 323 326 326 325 325 326 326 327 326 328 328 328 327 326 326 326 327 326 325 326 326 326 327 327 326 326 326 326 325 325 327
304 305 305 305 305 304 305 306 307 310 315 313 314 314 318 318 322 324 325 323 325 324 325 324 323 327 327 326 329 330 328 328 329 326 328 331 327 327 327 327 327 326 326 326 326 327 327 326 324 325 325 325 326 329
305 305 305 304 304 304 306 306 308 310 311 315 317 320 323 321 325 323 323 323 323 322 324 324 325 325 328 327 328 330 330 330 328 328 332 327 328 329 329 328 328 327 326 325 325 326 326 325 325 324 325 326 329 330
305 305 305 305 305 306 306 306 308 309 312 319 321 323 323 322 323 321 321 321 321 322 322 323 324 327 330 327 330 331 330 330 331 329 328 327 330 330 330 330 328 328 328 325 325 325 326 326 325 325 325 326 326 329
304 305 306 306 306 305 305 306 308 310 315 320 321 328 322 320 321 321 321 322 323 322 322 323 323 328 329 329 328 330 330 331 331 329 327 327 329 329 329 329 328 328 328 325 325 326 327 326 326 325 325 326 327 328
305 305 307 307 306 307 307 307 309 313 316 319 320 321 320 321 321 321 321 322 320 322 321 322 324 323 324 326 327 329 328 330 328 327 325 327 336 336 335 332 329 328 328 326 325 325 326 326 326 326 326 327 328 328
305 309 309 308 309 310 310 312 314 316 318 318 318 317 318 318 321 322 320 322 324 324 325 321 321 325 322 322 324 324 325 326 329 327 330 335 335 335 335 333 332 329 327 326 326 327 326 326 326 326 329 329 329 330
308 308 309 310 310 310 312 313 316 317 318 317 318 318 317 317 318 318 318 320 323 326 326 325 327 324 325 324 323 323 323 326 327 328 329 331 334 335 332 332 331 329 327 325 325 325 326 326 326 327 328 328 329 330
308 308 309 309 310 313 315 316 316 318 317 316 316 317 316 317 317 318 318 319 321 322 325 325 325 325 324 324 323 325 327 327 326 328 326 329 332 332 332 330 330 328 327 326 326 326 326 326 325 325 327 328 328 328
307 307 308 309 310 314 316 316 315 316 317 316 316 316 317 318 317 316 317 318 319 323 322 323 324 324 324 325 325 324 327 325 325 325 325 324 326 330 330 330 329 328 327 326 326 324 325 325 324 326 326 326 325 325
306 308 308 310 312 313 315 316 318 317 316 318 318 318 317 318 318 319 319 319 318 319 321 321 321 322 326 327 322 325 325 323 324 325 327 327 326 328 328 328 328 326 326 325 325 323 324 324 323 324 324 323 322 321
309 308 311 311 310 313 315 313 315 317 317 316 316 316 317 319 322 321 320 320 320 320 319 320 321 321 322 325 326 325 323 324 324 323 323 324 327 327 328 327 326 326 325 324 323 323 323 323 323 322 322 321 320 320
308 309 311 312 313 315 314 314 317 316 316 318 318 319 320 322 323 324 323 322 320 321 320 321 322 319 320 320 323 322 322 324 325 323 323 325 326 327 328 326 325 324 324 323 323 323 323 322 322 322 321 321 320 319
308 311 313 313 314 313 314 317 316 317 319 321 323 325 327 328 325 325 326 328 323 324 323 323 322 323 321 322 322 322 321 321 323 321 323 325 327 325 326 326 327 327 327 326 325 325 325 323 322 322 323 322 320 317
310 309 312 310 314 314 316 318 320 321 323 323 324 325 328 327 328 328 328 329 328 327 328 328 328 327 328 329 324 323 321 322 323 323 324 322 323 324 325 326 326 326 325 324 323 322 321 319 320 320 320 321 320 317
312 312 313 315 316 317 320 321 323 323 323 324 325 327 326 326 326 327 326 325 327 327 328 327 328 329 328 326 327 325 325 321 321 323 321 322 323 324 325 324 324 321 321 320 319 319 319 319 319 320 319 319 319 318
312 314 315 314 315 315 320 320 320 322 323 325 325 325 321 322 325 325 324 325 324 324 324 325 327 325 329 327 324 323 324 323 323 322 321 321 324 324 325 325 325 322 320 320 318 318 319 319 318 318 318 318 317 317
312 314 317 318 318 318 320 321 322 325 323 322 322 324 325 326 325 327 326 325 323 322 322 323 325 324 325 326 325 325 326 326 326 325 324 324 324 325 325 325 324 320 318 318 319 319 317 316 315 314 314 314 314 314
315 316 317 319 320 320 321 323 323 321 322 323 322 324 325 324 324 325 324 324 325 325 323 323 324 324 322 322 321 322 322 323 325 326 325 326 326 324 324 322 319 320 320 318 315 314 313 313 312 312 313 313 312 312
316 316 317 319 320 322 323 323 322 321 321 322 323 325 326 326 323 322 322 322 321 320 321 319 318 320 319 319 320 320 319 319 320 320 320 320 321 320 321 322 321 319 318 314 313 313 314 315 315 315 315 316 316 315
316 316 318 319 320 321 321 320 321 321 322 324 325 324 323 321 320 320 321 321 320 320 320 320 319 318 319 318 318 318 318 316 316 316 316 316 316 316 316 316 316 315 314 314 314 314 314 314 315 317 317 316 316 316
316 319 318 319 318 318 320 323 323 323 324 324 322 321 320 320 322 321 319 319 318 318 318 319 319 318 318 318 318 318 318 317 317 317 316 316 316 316 316 315 316 316 316 316 316 316 317 316 316 315 315 315 315 315
317 316 316 316 319 322 322 324 324 324 323 324 323 321 321 320 319 322 319 319 318 317 317 317 316 316 315 315 315 315 317 318 317 316 315 316 316 315 316 315 315 315 315 315 315 316 315 315 315 315 314 314 314 314